Boisbriand, Quebec

8:03 PM EDT on June 26, 2017 (GMT -0400)
Sainte Therese | | Change Station

Elev 10 ft 45.64 °N, 73.82 °W | Updated 34 seconds ago

Clear
Clear
69.3 °F
Feels Like 69.3 °F
N
2.0
Wind Variable Wind from East

Today
High -- | Low -- °F
--% Chance of Precip.
Yesterday
High -- | Low -- °F
Precip. -- in
Pressure 29.93 in
Visibility 45.0 miles
Clouds Few 6500 ft
Few 10000 ft
Few 26000 ft
Dew Point 45 °F
Humidity 41%
Rainfall 0.05 in
Snow Depth Not available.
5:07 AM 8:48 PM
Waxing Crescent, 12% visible
METAR CYMX 262300Z 26003KT 250V310 45SM FEW065 FEW100 FEW260 20/07 A2992 RMK CU1AC1CI1 AC TR SLP134 DENSITY ALT 1000FT
Pressure 29.93 in
Visibility 45.0 miles
Clouds Few 6500 ft
Few 10000 ft
Few 26000 ft
Dew Point 45 °F
Humidity 41%
Rainfall 0.05 in
Snow Depth Not available.
5:07 AM 8:48 PM
Waxing Crescent, 12% visible
METAR CYMX 262300Z 26003KT 250V310 45SM FEW065 FEW100 FEW260 20/07 A2992 RMK CU1AC1CI1 AC TR SLP134 DENSITY ALT 1000FT

Get Severe Weather Alerts

Thanks for signing up!

Be on the lookout for a verification email in your inbox.

You'll start receiving the daily forecast at 6 AM.

×

10-Day Weather Forecast

Almanac

Astronomy

Jun. 26, 2017 Rise Set
Actual Time
Civil Twilight
Nautical Twilight
Astronomical Twilight
Moon
Length of Visible Light
Length of Day
Tomorrow will be .
, % of the Moon is Illuminated

Today's Extremes

Country Highs Country Lows

Community

WunderPhotos

Category 6

Welcome to Category 6. This is the collective home for Weather Underground's featured writeups by Dr. Jeff Masters (right), Bob Henson (left), Chris Burt, and other regular contributors.

Nearby

Air Quality

  Air Quality AQ Index Pollutant
Not available.

Snow Depth

Station Depth Elevation

Earthquake Activity

City Distance Mag. Time & Date
Minimum magnitude displayed is 2.5.

Coastal Water Temperatures

Place Temperature

Stations

Nearby Weather Stations

Station Location Temp. Windchill Dew Point Humidity Wind Precip. Elev Updated Type
                   

Watches & Warnings

There are currently no watches in effect.